Regional Weather Roundup
Issued by NWS San Diego, CA

Home | Current Version | Previous Version | Text Only | Print | Product List | Glossary On
Versions: 1 2 3 4 5 6 7 8 9 10 11 12 13 14 15 16 17 18 19 20 21 22 23 24 25 26 27 28 29 30 31 32 33 34 35 36 37 38 39 40 41 42 43 44 45 46 47 48 49 50
000
ASUS46 KSGX 272011
RWRSGX

SAN DIEGO HOURLY WEATHER ROUNDUP
NATIONAL WEATHER SERVICE SAN DIEGO CA
100 PM PDT WED MAY 27 2015

NOTE: "FAIR" INDICATES FEW OR NO CLOUDS BELOW 12,000 FEET WITH NO
SIGNIFICANT WEATHER AND/OR OBSTRUCTIONS TO VISIBILITY.

CAZ042-043-060-061-PZZ750-775-272100-

GREATER SAN DIEGO AREA

CITY           SKY/WX    TMP DP  RH WIND       PRES   REMARKS
LINDBERGH FLD  CLOUDY    65  54  67 W10       30.02F
POINT LOMA       N/A     64  54  69 W15         N/A
NATIONAL CITY    N/A     66  58  75 W7        30.00F
CHULA VISTA      N/A     67  59  77 NW12      29.93F
IMPERIAL BEACH CLOUDY    66  55  67 W14       30.01F
BROWN FIELD    CLOUDY    65  56  72 NW9       30.00S
MIRAMAR MCAS   PTSUNNY   68  55  63 W10       30.00F
MONTGOMERY FLD CLOUDY    65  55  70 W8        30.00F

$$

NORTH SAN DIEGO COUNTY

CITY           SKY/WX    TMP DP  RH WIND       PRES   REMARKS
CAMP PENDLETON MOSUNNY   70  54  56 SW8       29.98F
OCEANSIDE AP   CLOUDY    69  54  58 SW10      29.98F
OCEANSIDE HBR    N/A     64  57  76 W10       30.02F
VISTA            N/A     67  58  71 SW6       29.97F
CARLSBAD       CLOUDY    65  55  70 W8        29.99F
DEL MAR          N/A     65  58  77 NW1       30.02F
LA JOLLA SCRIP   N/A    N/A N/A N/A W8        29.98F
FALLBROOK        N/A     69  60  75 SW5       29.98F
ESCONDIDO        N/A     69  58  67 CALM      30.00F
SAN MARCOS       N/A     66  58  75 W6        29.97F
POWAY            N/A     67  58  74 CALM      30.00F

$$

EAST SAN DIEGO COUNTY

CITY           SKY/WX    TMP DP  RH WIND       PRES   REMARKS
RAMONA         PTSUNNY   65  54  67 NW3       29.99F
SANTEE LAKES     N/A     69  58  69 CALM      29.98F
LA MESA          N/A     65  57  75 NW6       29.94F
JAMUL            N/A     65  57  75 CALM      29.99F
DESCANSO N       N/A     69  57  65 CALM      29.86S
MT. LAGUNA OBS   N/A     65  43  45 CALM      29.70R
CAMPO            N/A     69  53  56 S17       29.96S

$$

ORANGE COUNTY AND THE LOS ANGELES BASIN

CITY           SKY/WX    TMP DP  RH WIND       PRES   REMARKS
JOHN WAYNE AP  MOSUNNY   69  53  56 SW9       29.99F
LAKE FOREST FR   N/A     72  52  49 SW7       29.88F
SANTA ANA        N/A     74  57  54 CALM      29.94F
HUNTINGTON BCH   N/A     69  59  70 W5        30.02S
LOS ALAMITOS   MOSUNNY   70  55  59 S12       29.99S
FULLERTON      MOSUNNY   72  52  49 VRB3      29.98F
LONG BEACH     PTSUNNY   70  54  56 SW8       29.99F
L.A. AP        PTSUNNY   65  54  67 W13       30.01S
L.A. DOWNTOWN  SUNNY     71  55  56 VRB3      29.98S

$$

THE INLAND EMPIRE

CITY           SKY/WX    TMP DP  RH WIND       PRES   REMARKS
CORONA         MOSUNNY   73  54  51 W5        29.97F
CHINO          SUNNY     75  54  47 VRB5      29.99F
ONTARIO        MOSUNNY   70  51  51 W6        29.98F
SAN BERNARDINO SUNNY     70  48  46 SW7       29.98F HAZE
RIVERSIDE AP   SUNNY     71  52  50 CALM      29.98F
RIV CYN CREST    N/A     69  60  74 E5          N/A
MORENO VALLEY    N/A     72  58  61 SW2       29.95F
MARCH ARB      SUNNY     72  49  43 VRB6      29.98F
HORSETHIEF CYN   N/A     73  52  47 N5        29.94F
PERRIS           N/A     71  53  54 SE2         N/A
MENIFEE          N/A     75  54  46 SW3       30.03F
HEMET EAST       N/A     72  47  40 CALM      29.95S
FRENCH VALLEY  FAIR      70  54  56 S7        29.98F
TEMECULA         N/A     71  58  63 CALM      29.95S

$$

SAN BERNARDINO AND RIVERSIDE COUNTY MOUNTAINS

CITY           SKY/WX    TMP DP  RH WIND       PRES   REMARKS
BIG BEAR AP    SUNNY     66  30  26 NE10G18   30.16S
ANGELUS OAKS     N/A     68  44  40 W2        29.86R
PINE COVE        N/A     64  44  47 W1        29.90S

$$

SOUTHERN DESERT INCLUDING THE COACHELLA VALLEY

CITY           SKY/WX    TMP DP  RH WIND       PRES   REMARKS
PALM SPRINGS   SUNNY     90  45  21 E8        29.88F
THOUSAND PALMS   N/A     91  47  21 CALM      29.86F
PALM DESERT      N/A     92  51  24 CALM        N/A
THERMAL        SUNNY     91  39  16 SE10      29.83F
BLYTHE         SUNNY     91  35  13 MISG      29.86F
IMPERIAL AP    SUNNY     89  53  29 SW7       29.83F
EL CENTRO NAS  MOSUNNY   91  46  21 CALM      29.85F
YUMA AZ        PTSUNNY   90  45  21 VRB6      29.86F
MEXICALI       PTSUNNY   88  39  18 E6        29.86F

$$

UPPER DESERT

CITY           SKY/WX    TMP DP  RH WIND       PRES   REMARKS
VICTORVILLE AP SUNNY     84  28  13 S6        29.96F
HESPERIA         N/A     85  26  12 SW3       29.99F
APPLE VALLEY     N/A     84  29  14 CALM      29.98F
PALMDALE       SUNNY     84  36  18 NE7       29.95F
LANCASTER      SUNNY     85  33  15 CALM      29.94F
EDWARDS AFB    MOSUNNY   83  38  20 SW6       29.92F
DAGGETT        SUNNY     88  34  14 NE6       29.90F
29 PALMS N     MOSUNNY   87  37  17 SE12      29.98F

$$

REGIONAL REPORTS

CITY           SKY/WX    TMP DP  RH WIND       PRES   REMARKS
SANTA BARBARA  CLOUDY    65  54  67 SW6       30.00F
SANDBERG       SUNNY     76  41  28 VRB7      30.07F
LAS VEGAS NV   MOSUNNY   88  32  13 VRB5      29.88F
PHOENIX AZ     MOSUNNY   92  34  13 S6        29.88F
TIJUANA        CLOUDY    66  54  63 W9        30.02F
ENSENADA NW      N/A     65  32  29 W8        29.98S

$$

OFFSHORE ISLANDS

CITY           SKY/WX    TMP DP  RH WIND       PRES   REMARKS
CATALINA ARPT  PTSUNNY   59  52  77 W8        30.03R
SAN CLEMENTE I CLOUDY    62  54  74 W9        30.04S
SAN NICOLAS IS CLOUDY    63  52  67 NW16G24   30.02S

$$

MARINE AND OFFSHORE BUOY REPORTS

STATION/POSITION SKY/WX   TEMP    WIND        PRES    SWELL
                          AIR SEA DIR/SP/G            HT/PER/DIR
                          (F)     (DEG/KT/KT) (MB)    (FT/S/D)
TANNER BANKS               59 60  320/ 14/ 17 1017.2F   5/280/19
S CLEMENTE BASIN           60 62  280/ 10/ 12 1016.6S   3/240/17
SAN NICOLAS IS.               60                N/A     3/220/15
SO. S. ROSA ISLA           57 60  320/ 16/ 17 1016.3F   5/17
W. S. BARBARA CH           56 57  310/ 16/ 17 1016.3F   3/230/14
M. S. BARBARA CH           58 60  280/  6/  8 1017.0S
S. MONICA BASIN            59 63  300/  6/  8 1016.5F   3/230/13
S PEDRO CHANNEL               63                N/A     2/200/14
DANA POINT                    64                N/A     3/210/18
OCEANSIDE OFFSHR              65                N/A     3/220/18
TORREY PINES OTR              65                N/A     3/230/18
LA JOLLA 1                 63 65  310/  7/  8 1016.1S
MISSION BAY BUOY              65                N/A     3/220/18
SAN DIEGO BAY                 66              1016.6S
POINT LOMA SOUTH              64                N/A     3/220/18

$$




USA.gov is the U.S. government's official web portal to all federal, state and local government web resources and services.